Stations météo

réclame
Mon MeteoGroup
Chievres, Belgique (6432): Température de l'air & dewpoint: 22.10.2020 16:00:00 - 28.10.2020 16:00:00 (CET)Chievres, Belgique (6432): Vitesse du vent & gusts: 22.10.2020 16:00:00 - 28.10.2020 16:00:00 (CET)Chievres, Belgique (6432): Direction du vent: 22.10.2020 16:00:00 - 28.10.2020 16:00:00 (CET)Chievres, Belgique (6432): reduced air pressure: 22.10.2020 16:00:00 - 28.10.2020 16:00:00 (CET)Chievres, Belgique (6432): visibility: 22.10.2020 16:00:00 - 28.10.2020 16:00:00 (CET)
Date & Time tt [°C] td [°C] ff [km/h] ff [knt] fx [km/h] fx [knt] dd ppp [hPa] vv [km]
28.10.2020 16:00:00 - - - - - - - - -
28.10.2020 15:00:00 13,1 8,7 32 18 58 31 SSW 1007,7 20
28.10.2020 14:00:00 13,3 8,4 40 21 58 31 SSW 1008,0 20
28.10.2020 13:00:00 12,6 8,1 32 18 - - SSW 1008,5 20
28.10.2020 12:00:00 11,9 8,5 32 18 47 25 SSW 1008,7 20
28.10.2020 11:00:00 11,6 8,8 29 16 43 23 SSW 1008,3 20
28.10.2020 10:00:00 10,7 8,4 29 16 - - SSW 1008,3 18
28.10.2020 09:00:00 10,5 8,6 22 12 36 19 SSW 1007,7 20
28.10.2020 08:00:00 9,7 8,3 18 10 29 16 SSW 1007,2 19
28.10.2020 07:00:00 10,1 9,0 14 8 - - SSW 1006,5 20
28.10.2020 06:00:00 10,8 9,5 18 10 25 14 SW 1006,1 20
28.10.2020 05:00:00 11,1 9,8 18 10 29 16 SW 1005,7 20
28.10.2020 04:00:00 10,5 9,5 14 8 - - SSW 1004,8 20
28.10.2020 03:00:00 10,6 9,5 18 10 22 12 SSW 1004,6 20
28.10.2020 02:00:00 11,0 9,9 18 10 25 14 SSW 1004,7 20
28.10.2020 01:00:00 11,4 10,4 18 10 - - SW 1004,2 20
28.10.2020 00:00:00 11,6 10,9 14 8 32 18 SSW 1003,6 20
27.10.2020 23:00:00 12,2 10,2 22 12 47 25 SW 1002,7 20
27.10.2020 22:00:00 11,8 11,0 29 16 - - SSW 1002,2 19
27.10.2020 21:00:00 11,1 10,5 29 16 54 29 SSW 1001,6 4,9
27.10.2020 20:00:00 11,0 9,9 39 21 54 29 S 1000,7 10
27.10.2020 19:00:00 10,5 9,3 36 19 - - S 1001,0 3,4
27.10.2020 18:00:00 10,5 8,9 36 19 54 29 S 1001,3 20
27.10.2020 17:00:00 10,4 8,4 32 18 54 29 S 1001,8 17
27.10.2020 16:00:00 10,6 7,5 32 18 - - S 1002,7 17
27.10.2020 15:00:00 11,3 7,5 29 16 47 25 S 1003,6 20
27.10.2020 14:00:00 11,1 7,3 32 18 47 25 S 1004,2 20
27.10.2020 13:00:00 11,1 7,3 29 16 - - S 1004,8 20
27.10.2020 12:00:00 10,8 7,4 29 16 40 21 SSW 1005,5 18
27.10.2020 11:00:00 9,9 7,5 29 16 43 23 SSW 1005,7 20
27.10.2020 10:00:00 9,5 7,1 29 16 - - SSW 1005,7 19
27.10.2020 09:00:00 9,0 7,1 25 14 36 19 SSW 1005,7 20
27.10.2020 08:00:00 8,5 7,2 22 12 36 19 SSW 1005,6 20
27.10.2020 07:00:00 8,5 7,2 22 12 - - SSW 1005,0 20
27.10.2020 06:00:00 8,1 6,9 22 12 32 18 SSW 1004,6 20
27.10.2020 05:00:00 7,3 6,4 18 10 25 14 SSW 1004,3 20
27.10.2020 04:00:00 7,5 6,5 18 10 - - SSW 1004,1 20
27.10.2020 03:00:00 8,0 6,8 18 10 25 14 SSW 1004,2 20
27.10.2020 02:00:00 8,4 7,0 18 10 29 16 SSW 1004,1 20
27.10.2020 01:00:00 8,5 7,0 18 10 - - SSW 1004,1 17
27.10.2020 00:00:00 9,3 7,1 25 14 36 19 SSW 1004,1 20
26.10.2020 23:00:00 9,6 7,2 22 12 36 19 SSW 1003,8 20
26.10.2020 22:00:00 9,6 7,2 22 12 - - SSW 1003,6 20
26.10.2020 21:00:00 9,3 7,0 18 10 29 16 SSW 1003,0 20
26.10.2020 20:00:00 9,8 7,1 24 13 32 18 SW 1002,3 10
26.10.2020 19:00:00 10,2 7,0 22 12 - - SSW 1002,3 20
26.10.2020 18:00:00 11,1 7,5 18 10 25 14 SSW 1002,0 20
26.10.2020 17:00:00 11,2 7,1 18 10 43 23 SW 1001,7 20
26.10.2020 16:00:00 11,6 6,9 29 16 - - SW 1001,6 20
26.10.2020 15:00:00 12,0 6,8 29 16 47 25 SW 1001,2 17
26.10.2020 14:00:00 12,1 7,0 32 18 47 25 SW 1001,1 20
26.10.2020 13:00:00 12,0 7,7 29 16 - - SSW 1001,3 19
26.10.2020 12:00:00 11,4 7,5 29 16 40 21 SSW 1001,5 20
26.10.2020 11:00:00 10,0 7,0 28 15 - - SSW - 10
26.10.2020 10:00:00 9,3 6,8 25 14 - - SW 1002,2 20
26.10.2020 09:00:00 8,8 6,6 25 14 40 21 SSW 1001,8 20
26.10.2020 08:00:00 8,6 6,3 25 14 36 19 SSW 1001,7 20
26.10.2020 07:00:00 8,3 6,2 22 12 - - SSW 1001,2 20
26.10.2020 06:00:00 8,6 6,6 25 14 40 21 SSW 1000,3 20
26.10.2020 05:00:00 8,3 6,8 18 10 29 16 SSW 1000,6 20
26.10.2020 04:00:00 8,7 7,3 18 10 - - SSW 1000,5 20
26.10.2020 03:00:00 9,1 7,9 18 10 25 14 SSW 1000,6 20
26.10.2020 02:00:00 9,3 8,2 18 10 25 14 SSW 1000,6 20
26.10.2020 01:00:00 9,2 8,2 18 10 - - SSW 1001,0 20
26.10.2020 00:00:00 9,5 8,6 14 8 22 12 S 1001,0 20
25.10.2020 23:00:00 9,3 8,2 11 6 18 10 S 1001,1 20
25.10.2020 22:00:00 9,5 8,3 11 6 - - S 1001,2 20
25.10.2020 21:00:00 10,3 8,9 14 8 25 14 SSW 1001,3 14
25.10.2020 20:00:00 11,1 9,1 14 8 22 12 S 1001,3 20
25.10.2020 19:00:00 10,8 9,0 13 7 - - S 1001,7 10
25.10.2020 18:00:00 11,3 8,9 22 12 32 18 SSW 1001,8 20
25.10.2020 17:00:00 11,6 9,0 22 12 32 18 SSW 1001,6 20
25.10.2020 16:00:00 11,5 9,1 22 12 - - S 1001,0 20
25.10.2020 15:00:00 11,8 8,9 21 11 32 18 S 1001,1 10
25.10.2020 14:00:00 11,8 9,3 18 10 36 19 SSW 1001,5 20
25.10.2020 13:00:00 12,0 10,1 22 12 - - SSW 1002,0 20
25.10.2020 12:00:00 11,7 10,1 18 10 29 16 SSW 1002,2 20
25.10.2020 11:00:00 11,5 9,7 18 10 32 18 SW 1002,7 20
25.10.2020 10:00:00 11,8 9,7 22 12 - - SW 1001,8 20
25.10.2020 09:00:00 12,1 10,3 22 12 32 18 SSW 1002,0 20
25.10.2020 08:00:00 12,0 10,5 22 12 32 18 SSW 1001,7 20
25.10.2020 07:00:00 11,4 10,2 22 12 - - S 1001,2 20
25.10.2020 06:00:00 10,8 9,6 25 14 54 29 SW 1002,3 11
25.10.2020 05:00:00 12,7 11,2 37 20 58 31 SSW 1001,7 3,7
25.10.2020 04:00:00 14,3 10,2 36 19 - - S 1001,6 20
25.10.2020 03:00:00 14,5 10,3 36 19 54 29 S 1002,2 20
25.10.2020 02:00:00 14,5 10,5 36 19 54 29 SSW 1003,0 20
25.10.2020 01:00:00 - - - - - - - - -
25.10.2020 00:00:00 15,1 11,1 36 19 61 33 SSW 1004,2 20
24.10.2020 23:00:00 15,0 11,6 43 23 61 33 SSW 1005,0 20
24.10.2020 22:00:00 15,3 11,7 36 19 - - S 1005,2 20
24.10.2020 21:00:00 15,3 12,0 36 19 61 33 S 1005,7 20
24.10.2020 20:00:00 15,3 12,4 36 19 54 29 S 1006,3 20
24.10.2020 19:00:00 15,0 12,7 36 19 - - S 1007,1 20
24.10.2020 18:00:00 14,4 12,9 29 16 47 25 S 1008,0 5
24.10.2020 17:00:00 14,9 12,3 29 16 47 25 S 1008,3 20
24.10.2020 16:00:00 15,1 12,6 29 16 - - S 1009,2 20
24.10.2020 15:00:00 15,6 12,4 29 16 47 25 SSW 1009,6 20
24.10.2020 14:00:00 15,1 12,5 29 16 50 27 SSW 1010,2 20
24.10.2020 13:00:00 14,2 12,7 29 16 - - SSW 1010,8 12
24.10.2020 12:00:00 14,1 12,0 25 14 50 27 SSW 1011,6 20
24.10.2020 11:00:00 14,1 11,5 29 16 40 21 SSW 1011,8 20
24.10.2020 10:00:00 13,3 11,1 25 14 - - SSW 1012,1 20
24.10.2020 09:00:00 12,3 10,9 25 14 40 21 SSW 1012,1 20
24.10.2020 08:00:00 11,6 10,9 25 14 43 23 SSW 1011,8 4,3
24.10.2020 07:00:00 11,5 10,8 28 15 - - SSW 1011,7 3,6
24.10.2020 06:00:00 11,5 10,7 22 12 36 19 SSW 1012,3 2,9
24.10.2020 05:00:00 12,3 10,4 22 12 32 18 SSW 1012,3 20
24.10.2020 04:00:00 11,8 10,2 22 12 - - SSW 1012,6 20
24.10.2020 03:00:00 12,1 10,2 18 10 25 14 SSW 1013,1 20
24.10.2020 02:00:00 12,3 10,5 18 10 22 12 SSW 1013,2 20
24.10.2020 01:00:00 12,6 10,9 14 8 - - SSW 1013,1 20
24.10.2020 00:00:00 12,1 11,0 11 6 18 10 SSW 1013,1 20
23.10.2020 23:00:00 12,3 10,9 14 8 18 10 SW 1013,2 20
23.10.2020 22:00:00 11,8 10,5 7 4 - - SW 1013,0 20
23.10.2020 21:00:00 13,3 10,9 14 8 22 12 SW 1012,0 20
23.10.2020 20:00:00 13,7 10,7 14 8 22 12 SW 1011,5 20
23.10.2020 19:00:00 12,7 10,2 11 6 - - SSW 1011,3 20
23.10.2020 18:00:00 14,2 10,3 14 8 22 12 SW 1011,0 20
23.10.2020 17:00:00 15,2 11,5 11 6 25 14 SSW 1010,7 20
23.10.2020 16:00:00 16,2 11,2 14 8 - - WSW 1010,5 20
23.10.2020 15:00:00 16,7 12,2 14 8 25 14 WSW 1010,2 20
23.10.2020 14:00:00 17,0 12,8 22 12 29 16 SW 1010,2 20
23.10.2020 13:00:00 16,3 12,8 18 10 - - SW 1010,3 20
23.10.2020 12:00:00 15,4 13,8 18 10 29 16 SSW 1010,7 10
23.10.2020 11:00:00 14,8 13,9 13 7 22 12 SSW 1010,8 9
23.10.2020 10:00:00 14,3 13,8 7 4 - - SSW 1010,7 6
23.10.2020 09:00:00 13,6 13,6 11 6 14 8 SSW 1010,7 3,2
23.10.2020 08:00:00 13,3 13,2 11 6 18 10 S 1010,5 1,4
23.10.2020 07:00:00 13,1 12,8 7 4 - - S 1010,5 7
23.10.2020 06:00:00 12,8 12,8 4 2 7 4 N 1010,5 4,4
23.10.2020 05:00:00 12,1 12,1 4 2 7 4 N 1010,7 2,1
23.10.2020 04:00:00 11,6 11,4 4 2 - - N 1011,3 1,8
23.10.2020 03:00:00 11,1 10,8 4 2 7 4 N 1011,7 0,7
23.10.2020 02:00:00 12,4 12,4 4 2 7 4 N 1012,2 4,8
23.10.2020 01:00:00 11,2 11,1 4 2 - - N 1012,3 2,4
23.10.2020 00:00:00 11,8 11,8 4 2 11 6 N 1012,6 3,6
22.10.2020 23:00:00 11,0 11,0 4 2 7 4 N 1012,6 1,5
22.10.2020 22:00:00 11,4 11,3 7 4 - - S 1012,6 3,4
22.10.2020 21:00:00 11,8 11,6 4 2 7 4 - 1012,2 3,6
22.10.2020 20:00:00 13,2 12,3 4 2 11 6 - 1012,1 7
22.10.2020 19:00:00 13,8 12,7 7 4 - - SSW 1012,1 18
22.10.2020 18:00:00 15,2 13,3 7 4 18 10 WSW 1011,7 20
22.10.2020 17:00:00 16,2 13,6 14 8 25 14 SSW 1011,2 20
22.10.2020 16:00:00 16,8 13,8 11 6 - - SW 1011,2 20

tt = Température de l'air
td = dewpoint
ff = Vitesse du vent
fx = gusts
dd = Direction du vent
ppp = reduced air pressure
vv = visibility

stations d'obs. à proximité